Location: Madrid
(40.4000°N, 3.6830°W)
Time: 01:06:53
(UTC+01:00)

ISS - Pass Details

Date: 23 February 2020
Orbit: 415 x 422 km, 51.6° (Epoch: 27 February)

Event Time Altitude Azimuth Distance (km) Brightness Sun altitude
Exits shadow 05:54:49 19° 146° (SE) 1,070 -1.5 -24.2°
Maximum altitude 05:55:22 20° 132° (SE) 1,045 -1.4 -24.1°
Drops below altitude 10° 05:57:52 10° 84° (E) 1,501 0.1 -23.6°
Sets 06:00:21 0° 66° (ENE) 2,370 1.3 -23.2°
